Flag Weather past 2 weeks in Madaba, Jordan

Now
48 °F

Fog.


Feels Like: 48 °F
Forecast: 42 / 53 °F
Wind: No wind

Location: Queen Alia Airport

Current Time: Nov 28, 2014 at 1:43:01 AM

Latest Report: Nov 28, 2014 at 1:00 AM


Visibility: 2 mi

Pressure: 30.15 "Hg

Humidity: 94%

Dew point: 46 °F

Location of MadabaLocation

Historic Weather in Madaba — Graph

°F

Madaba temperature yesterday

Maximum temperature yesterday: 50 °F (at 12:00 AM)
Minimum temperature yesterday: 46 °F (at 5:00 AM)
Average temperature yesterday: 48 °F

Past Weeks' High & Low Weather Summary

 TemperatureHumidityPressure
High75 °F (Nov 14, 2:00 PM)100% (Nov 17, 6:00 AM)30.24 "Hg (Nov 17, 6:00 AM)
Low41 °F (Nov 13, 3:00 AM)16% (Nov 14, 2:00 PM)29.89 "Hg (Nov 24, 2:00 PM)
Average55 °F68%30.02 "Hg
* Reported Midnight between Nov 12 and Nov 13 — Midnight between Nov 27 and Nov 28, Madaba, Weather by CustomWeather, © 2014

Note: Actual official high and low records may vary slightly from our data, if they occured in-between our weather recording intervals... More about our weather records

Advertising

Madaba weather history for previous 24 hours

 ConditionsComfort  
Time TempWeatherWind HumidityBarometerVisibility
12:00 AM
Nov 28
48 °FFog.No wind94%30.15 "Hg2 mi
11:00 PM
Nov 27
48 °FLight rain. Overcast.No wind94%30.15 "Hg2 mi
10:00 PM48 °FFog.No wind94%30.15 "Hg2 mi
9:00 PM48 °FFog.No wind100%30.12 "Hg2 mi
8:00 PM50 °FLight rain. Passing clouds.No wind94%30.12 "Hg2 mi
7:00 PM50 °FLight rain. Passing clouds.No wind94%30.12 "Hg2 mi
6:00 PM50 °FFog.6 mph94%30.09 "Hg2 mi
5:00 PM50 °FFog.12 mph94%30.09 "Hg2 mi
4:00 PM50 °FFog.12 mph88%30.07 "Hg2 mi
3:00 PM50 °FFog.12 mph88%30.07 "Hg2 mi
2:00 PM48 °FLight rain. Partly sunny.12 mph94%30.04 "Hg2 mi
1:00 PM48 °FFog.9 mph94%30.04 "Hg2 mi
12:00 PM48 °FRain. Partly sunny.12 mph94%30.04 "Hg1 mi
11:00 AM48 °FRain. Partly sunny.16 mph94%30.04 "Hg2 mi
10:00 AM46 °FRain. Partly sunny.14 mph100%30.07 "Hg1 mi
9:00 AM46 °FRain. Partly sunny.12 mph100%30.07 "Hg1 mi
8:00 AM46 °FRain. Partly sunny.12 mph100%30.04 "Hg1 mi
7:00 AM46 °FRain. Partly sunny.9 mph100%30.01 "Hg2 mi
6:00 AM46 °FRain. Passing clouds.7 mph100%30.01 "Hg3 mi
5:00 AM46 °FRain. Passing clouds.7 mph100%30.01 "Hg3 mi
3:00 AM48 °FRain. Passing clouds.9 mph94%29.98 "Hg3 mi
2:00 AM48 °FRain. Passing clouds.9 mph94%29.98 "Hg3 mi
1:00 AM50 °FRain. Passing clouds.9 mph94%29.98 "Hg2 mi
Weather by CustomWeather, © 2014

See weather overviewHow to use our weather pages